Regional Weather Roundup
Issued by NWS Newport/Morehead, NC

Current Version | Previous Version | Text Only | Print | Product List | Glossary On
Versions: 1 2 3 4 5 6 7 8 9 10 11 12 13 14 15 16 17 18 19 20 21 22 23 24 25 26 27 28 29 30 31 32 33 34 35 36 37 38 39 40 41 42 43 44 45 46 47 48 49 50
000
ASUS42 KMHX 060825
RWRMHX
WEATHER ROUNDUP FOR EASTERN NORTH CAROLINA
NATIONAL WEATHER SERVICE NEWPORT/MOREHEAD CITY NC
400 AM EDT MON JUL 06 2015

NOTE: "FAIR" INDICATES FEW OR NO CLOUDS BELOW 12,000 FEET
WITH NO SIGNIFICANT WEATHER AND/OR OBSTRUCTIONS TO VISIBILITY

NCZ015>017-031-032-045>047-102-103-060900-
NORTH COAST

CITY           SKY/WX    TMP DP  RH WIND       PRES   REMARKS
EDENTON        MOCLDY    71  69  92 E3        30.11S
ELIZABETH CITY CLOUDY    73  70  90 SE3       30.11S FOG
KITTY HAWK     PTSUNNY   77  74  89 SW3       30.10S
MANTEO         CLOUDY    76  74  94 W6        30.12S

$$

NCZ045>047-081-094-103-104-060900-
CENTRAL COAST

CITY           SKY/WX    TMP DP  RH WIND       PRES   REMARKS
FRISCO         PTCLDY    76  75  97 SW7       30.13S
SWANQUARTER      N/A     79 N/A N/A SW8G17    30.09S

$$

NCZ095-097-098-100-101-060900-
SOUTHERN COAST

CITY           SKY/WX    TMP DP  RH WIND       PRES   REMARKS
BEAUFORT       PTCLDY    79  76  90 SW10      30.12F
CEDAR ISLAND     N/A     77 N/A N/A S3G10     30.18R
JACKSONVILLE   CLEAR     76  74  93 S5        30.11S
PINEY ISLAND   PTSUNNY  N/A N/A N/A S5        30.12F
WILMINGTON     PTCLDY    77  75  93 S6        30.11F


$$

NCZ011>013-027>030-043-044-078>080-089-090>093-098-060900-
COASTAL PLAIN

CITY           SKY/WX    TMP DP  RH WIND       PRES   REMARKS
AHOSKIE        MOCLDY   N/A N/A N/A CALM      30.10F
CLINTON        CLEAR     74  74  99 CALM      30.11S
ELIZABETHTOWN  CLEAR     74  74  99 CALM      30.11S
GOLDSBORO      PTCLDY    74  73  96 SE1       30.09S
GREENVILLE     MOCLDY    75  73  94 CALM      30.13S
HAVELOCK       PTCLDY    77  74  90 S6        30.13S
KENANSVILLE    MOCLDY    74  72  95 CALM      30.12S FOG
KINSTON        PTCLDY    74  72  94 SE5       30.12S
NEW BERN       PTCLDY    77  74  90 S6        30.13S
RICHLANDS      CLEAR     72  66  83 CALM      30.12S
ROCKY MOUNT    MOCLDY    71  70  96 CALM      30.10F
WASHINGTON     MOCLDY    74  72  92 CALM      30.12S
WHITEVILLE     CLEAR     75  73  91 CALM      30.11R

$$

AMZ130-135-150-152-154-156-158-170-250-252-270-ANZ085-086-088-633-658-670-060900-
MARINE OBSERVATIONS

STATION/POSITION TIME  TEMP    WIND        PRES    WAVE   SWELL
                       AIR SEA DIR/SP/G            HT/PER HT/PER
                 (UTC) (F)     (DEG/KT/KT) (MB)    (FT/S) (FT/S)
CHESAPEAKE LIGHT 0800   76      30/  7/  7 1020.1
64 E VA BEACH    0750   78 77  210/  8/  8 1019.2    3/ 6   3/ 6
DUCK             0800   79 78  240/  8/ 11   N/A
2 E DUCK         0711      78                N/A     2/14
OREGON INLET     0800   80 82  220/ 16/ 18 1019.6
13E OREGON INLT  0800      78                N/A     3/13   2/13
HATTERAS CG      0800   78 80  210/  6/  9 1020.0
DIAMOND BUOY     0750   80 80  230/ 10/ 14 1020.2    3/ 8   2/ 8
CAPE LOOKOUT     0800   79     220/  9/ 11 1019.9
BEAUFORT LAB     0800   80 81  200/ 10/ 12 1019.4
30 SE NEW RVR IN NOT AVBL
27 SE WRIGHTSVLE 0800      80  210/ 10/ 14   N/A
5 SE WRIGHTSVLE  0708   79 78  200/  8/ 12 1019.8
225 S CAPE HAT   0750   80 80  190/  6/  8 1022.4    4/ 9   3/ 9
41 SE CHARLESTON 0750   81 81  230/ 14/ 16 1019.1    3/ 8   2/ 8

$$


USA.gov is the U.S. government's official web portal to all federal, state and local government web resources and services.